Time,TemperatureF,DewpointF,PressureIn,WindDirection,WindDirectionDegrees,WindSpeedMPH,WindSpeedGustMPH,Humidity,HourlyPrecipIn,Conditions,Clouds,dailyrainin,SoftwareType,DateUTC
2013-01-17 00:01:00,21.0,14.0,30.76,East,86,4.0,7.0,74,0.00,,,0.00,Wunderground v.1.15,2013-01-17 07:01:00,
2013-01-17 00:10:00,21.1,14.1,30.76,East,85,5.0,6.0,74,0.00,,,0.00,Wunderground v.1.15,2013-01-17 07:10:00,
2013-01-17 00:15:00,21.0,14.0,30.75,ESE,111,5.0,6.0,74,0.00,,,0.00,Wunderground v.1.15,2013-01-17 07:15:00,
2013-01-17 00:25:00,21.1,14.1,30.75,ESE,122,5.0,7.0,74,0.00,,,0.00,Wunderground v.1.15,2013-01-17 07:25:00,
2013-01-17 00:30:00,20.9,13.9,30.75,ESE,103,5.0,5.0,74,0.00,,,0.00,Wunderground v.1.15,2013-01-17 07:30:00,
2013-01-17 00:40:00,20.8,14.1,30.75,ESE,103,4.0,9.0,75,0.00,,,0.00,Wunderground v.1.15,2013-01-17 07:40:00,
2013-01-17 00:45:00,20.8,14.1,30.75,NE,56,5.0,9.0,75,0.00,,,0.00,Wunderground v.1.15,2013-01-17 07:45:00,
2013-01-17 00:50:00,20.8,14.1,30.75,East,88,4.0,4.0,75,0.00,,,0.00,Wunderground v.1.15,2013-01-17 07:50:00,
2013-01-17 01:01:00,20.7,14.0,30.75,ENE,65,5.0,5.0,75,0.00,,,0.00,Wunderground v.1.15,2013-01-17 08:01:00,
2013-01-17 01:11:00,20.7,14.0,30.75,East,83,5.0,5.0,75,0.00,,,0.00,Wunderground v.1.15,2013-01-17 08:11:00,
2013-01-17 01:21:00,20.5,13.8,30.75,ENE,58,4.0,5.0,75,0.00,,,0.00,Wunderground v.1.15,2013-01-17 08:21:00,
2013-01-17 01:30:00,20.4,13.7,30.74,ENE,68,5.0,5.0,75,0.00,,,0.00,Wunderground v.1.15,2013-01-17 08:30:00,
2013-01-17 01:40:00,20.3,13.6,30.75,SE,128,5.0,5.0,75,0.00,,,0.00,Wunderground v.1.15,2013-01-17 08:40:00,
2013-01-17 01:45:00,20.3,13.6,30.74,ENE,69,5.0,5.0,75,0.00,,,0.00,Wunderground v.1.15,2013-01-17 08:45:00,
2013-01-17 01:50:00,20.3,13.6,30.74,East,80,5.0,7.0,75,0.00,,,0.00,Wunderground v.1.15,2013-01-17 08:50:00,
2013-01-17 01:55:00,20.2,13.5,30.75,ENE,72,5.0,7.0,75,0.00,,,0.00,Wunderground v.1.15,2013-01-17 08:55:00,
2013-01-17 02:01:00,19.7,13.1,30.75,East,98,5.0,5.0,75,0.00,,,0.00,Wunderground v.1.15,2013-01-17 09:01:00,
2013-01-17 02:10:00,19.8,13.5,30.74,East,92,5.0,6.0,76,0.00,,,0.00,Wunderground v.1.15,2013-01-17 09:10:00,
2013-01-17 02:16:00,19.8,13.5,30.74,East,93,5.0,6.0,76,0.00,,,0.00,Wunderground v.1.15,2013-01-17 09:16:00,
2013-01-17 02:25:00,19.4,12.8,30.73,East,92,4.0,5.0,75,0.00,,,0.00,Wunderground v.1.15,2013-01-17 09:25:00,
2013-01-17 02:30:00,19.2,12.9,30.73,ESE,116,4.0,4.0,76,0.00,,,0.00,Wunderground v.1.15,2013-01-17 09:30:00,
2013-01-17 02:40:00,18.8,13.1,30.73,East,90,3.0,5.0,78,0.00,,,0.00,Wunderground v.1.15,2013-01-17 09:40:00,
2013-01-17 02:45:00,19.3,13.3,30.73,East,97,4.0,5.0,77,0.00,,,0.00,Wunderground v.1.15,2013-01-17 09:45:00,
2013-01-17 02:50:00,18.5,12.2,30.73,ESE,107,4.0,5.0,76,0.00,,,0.00,Wunderground v.1.15,2013-01-17 09:50:00,
2013-01-17 03:01:00,18.2,12.5,30.73,East,88,3.0,3.0,78,0.00,,,0.00,Wunderground v.1.15,2013-01-17 10:01:00,
2013-01-17 03:10:00,18.5,12.2,30.72,ESE,120,4.0,4.0,76,0.00,,,0.00,Wunderground v.1.15,2013-01-17 10:10:00,
2013-01-17 03:20:00,18.1,12.1,30.72,East,98,4.0,6.0,77,0.00,,,0.00,Wunderground v.1.15,2013-01-17 10:20:00,
2013-01-17 03:26:00,17.6,11.9,30.72,East,96,3.0,6.0,78,0.00,,,0.00,Wunderground v.1.15,2013-01-17 10:26:00,
2013-01-17 03:35:00,17.4,12.0,30.71,East,84,4.0,5.0,79,0.00,,,0.00,Wunderground v.1.15,2013-01-17 10:35:00,
2013-01-17 03:45:00,17.7,12.0,30.71,SE,138,6.0,6.0,78,0.00,,,0.00,Wunderground v.1.15,2013-01-17 10:45:00,
2013-01-17 03:50:00,17.5,11.8,30.71,East,90,5.0,7.0,78,0.00,,,0.00,Wunderground v.1.15,2013-01-17 10:50:00,
2013-01-17 04:01:00,18.1,12.4,30.70,East,92,6.0,6.0,78,0.00,,,0.00,Wunderground v.1.15,2013-01-17 11:01:00,
2013-01-17 04:10:00,17.9,11.9,30.70,East,94,5.0,5.0,77,0.00,,,0.00,Wunderground v.1.15,2013-01-17 11:10:00,
2013-01-17 04:15:00,17.3,11.6,30.70,East,96,5.0,9.0,78,0.00,,,0.00,Wunderground v.1.15,2013-01-17 11:15:00,
2013-01-17 04:25:00,17.9,12.2,30.69,East,81,5.0,8.0,78,0.00,,,0.00,Wunderground v.1.15,2013-01-17 11:25:00,
2013-01-17 04:30:00,18.3,12.6,30.69,ESE,102,6.0,6.0,78,0.00,,,0.00,Wunderground v.1.15,2013-01-17 11:30:00,
2013-01-17 04:40:00,18.4,12.4,30.69,East,101,6.0,8.0,77,0.00,,,0.00,Wunderground v.1.15,2013-01-17 11:40:00,
2013-01-17 04:45:00,18.4,12.4,30.69,East,94,5.0,8.0,77,0.00,,,0.00,Wunderground v.1.15,2013-01-17 11:45:00,
2013-01-17 04:50:00,18.4,12.4,30.69,East,97,5.0,6.0,77,0.00,,,0.00,Wunderground v.1.15,2013-01-17 11:50:00,
2013-01-17 05:05:00,18.1,12.4,30.68,East,98,5.0,7.0,78,0.00,,,0.00,Wunderground v.1.15,2013-01-17 12:05:00,
2013-01-17 05:15:00,18.2,12.5,30.68,ENE,78,5.0,7.0,78,0.00,,,0.00,Wunderground v.1.15,2013-01-17 12:15:00,
2013-01-17 05:20:00,18.4,12.4,30.68,East,95,5.0,5.0,77,0.00,,,0.00,Wunderground v.1.15,2013-01-17 12:20:00,
2013-01-17 05:25:00,18.0,12.0,30.67,East,94,5.0,6.0,77,0.00,,,0.00,Wunderground v.1.15,2013-01-17 12:25:00,
2013-01-17 05:35:00,18.1,12.1,30.67,ENE,76,6.0,6.0,77,0.00,,,0.00,Wunderground v.1.15,2013-01-17 12:35:00,
2013-01-17 05:40:00,18.0,12.0,30.67,ENE,68,5.0,5.0,77,0.00,,,0.00,Wunderground v.1.15,2013-01-17 12:40:00,
2013-01-17 05:45:00,17.4,11.4,30.67,ENE,71,5.0,7.0,77,0.00,,,0.00,Wunderground v.1.15,2013-01-17 12:45:00,
2013-01-17 05:50:00,16.9,10.9,30.67,East,94,5.0,5.0,77,0.00,,,0.00,Wunderground v.1.15,2013-01-17 12:50:00,
2013-01-17 06:01:00,16.8,11.4,30.67,East,90,5.0,5.0,79,0.00,,,0.00,Wunderground v.1.15,2013-01-17 13:01:00,
2013-01-17 06:10:00,16.3,10.9,30.67,East,82,4.0,4.0,79,0.00,,,0.00,Wunderground v.1.15,2013-01-17 13:10:00,
2013-01-17 06:15:00,16.2,10.8,30.67,East,97,4.0,5.0,79,0.00,,,0.00,Wunderground v.1.15,2013-01-17 13:15:00,
2013-01-17 06:20:00,16.0,10.9,30.66,East,92,4.0,5.0,80,0.00,,,0.00,Wunderground v.1.15,2013-01-17 13:20:00,
2013-01-17 06:25:00,16.0,10.9,30.67,ESE,107,4.0,5.0,80,0.00,,,0.00,Wunderground v.1.15,2013-01-17 13:25:00,
2013-01-17 06:30:00,15.9,11.1,30.67,ESE,105,4.0,4.0,81,0.00,,,0.00,Wunderground v.1.15,2013-01-17 13:30:00,
2013-01-17 06:40:00,15.3,10.5,30.67,ENE,70,3.0,4.0,81,0.00,,,0.00,Wunderground v.1.15,2013-01-17 13:40:00,
2013-01-17 06:50:00,15.9,10.8,30.67,East,83,5.0,6.0,80,0.00,,,0.00,Wunderground v.1.15,2013-01-17 13:50:00,
2013-01-17 06:55:00,15.8,10.4,30.67,SE,138,5.0,6.0,79,0.00,,,0.00,Wunderground v.1.15,2013-01-17 13:55:00,
2013-01-17 07:01:00,15.1,10.0,30.67,East,90,5.0,5.0,80,0.00,,,0.00,Wunderground v.1.15,2013-01-17 14:01:00,
2013-01-17 07:10:00,15.5,10.7,30.67,East,90,5.0,5.0,81,0.00,,,0.00,Wunderground v.1.15,2013-01-17 14:10:00,
2013-01-17 07:15:00,15.4,10.3,30.67,East,89,6.0,6.0,80,0.00,,,0.00,Wunderground v.1.15,2013-01-17 14:15:00,
2013-01-17 07:25:00,15.1,10.3,30.68,ESE,103,5.0,5.0,81,0.00,,,0.00,Wunderground v.1.15,2013-01-17 14:25:00,
2013-01-17 07:30:00,15.3,10.8,30.68,ESE,109,5.0,5.0,82,0.00,,,0.00,Wunderground v.1.15,2013-01-17 14:30:00,
2013-01-17 07:40:00,16.1,11.0,30.69,East,91,7.0,7.0,80,0.00,,,0.00,Wunderground v.1.15,2013-01-17 14:40:00,
2013-01-17 07:45:00,16.3,11.2,30.69,East,87,7.0,7.0,80,0.00,,,0.00,Wunderground v.1.15,2013-01-17 14:45:00,
2013-01-17 07:50:00,16.4,11.0,30.69,East,96,6.0,6.0,79,0.00,,,0.00,Wunderground v.1.15,2013-01-17 14:50:00,
2013-01-17 08:01:00,16.3,10.9,30.70,East,88,6.0,6.0,79,0.00,,,0.00,Wunderground v.1.15,2013-01-17 15:01:00,
2013-01-17 08:10:00,16.0,10.6,30.69,SE,126,6.0,6.0,79,0.00,,,0.00,Wunderground v.1.15,2013-01-17 15:10:00,
2013-01-17 08:20:00,16.4,11.0,30.69,East,87,6.0,6.0,79,0.00,,,0.00,Wunderground v.1.15,2013-01-17 15:20:00,
2013-01-17 08:26:00,16.5,10.8,30.69,East,88,6.0,7.0,78,0.00,,,0.00,Wunderground v.1.15,2013-01-17 15:26:00,
2013-01-17 08:31:00,16.7,11.3,30.69,ESE,108,6.0,9.0,79,0.00,,,0.00,Wunderground v.1.15,2013-01-17 15:31:00,
2013-01-17 08:40:00,17.5,11.5,30.69,ESE,106,6.0,7.0,77,0.00,,,0.00,Wunderground v.1.15,2013-01-17 15:40:00,
2013-01-17 08:45:00,18.3,12.3,30.69,East,94,7.0,7.0,77,0.00,,,0.00,Wunderground v.1.15,2013-01-17 15:45:00,
2013-01-17 08:55:00,19.9,13.3,30.69,East,90,7.0,8.0,75,0.00,,,0.00,Wunderground v.1.15,2013-01-17 15:55:00,
2013-01-17 09:01:00,20.0,13.0,30.69,East,84,6.0,8.0,74,0.00,,,0.00,Wunderground v.1.15,2013-01-17 16:01:00,
2013-01-17 09:10:00,22.2,14.2,30.69,East,81,8.0,8.0,71,0.00,,,0.00,Wunderground v.1.15,2013-01-17 16:10:00,
2013-01-17 09:15:00,22.4,14.4,30.69,East,91,6.0,8.0,71,0.00,,,0.00,Wunderground v.1.15,2013-01-17 16:15:00,
2013-01-17 09:25:00,24.0,15.3,30.68,East,86,6.0,7.0,69,0.00,,,0.00,Wunderground v.1.15,2013-01-17 16:25:00,
2013-01-17 09:30:00,24.4,15.3,30.68,ENE,78,5.0,5.0,68,0.00,,,0.00,Wunderground v.1.15,2013-01-17 16:30:00,
2013-01-17 09:40:00,24.6,15.9,30.68,ESE,123,2.0,2.0,69,0.00,,,0.00,Wunderground v.1.15,2013-01-17 16:40:00,
2013-01-17 09:45:00,25.3,16.2,30.68,SSE,150,1.0,2.0,68,0.00,,,0.00,Wunderground v.1.15,2013-01-17 16:45:00,
2013-01-17 09:50:00,26.9,16.7,30.67,South,171,1.0,1.0,65,0.00,,,0.00,Wunderground v.1.15,2013-01-17 16:50:00,
2013-01-17 09:55:00,27.7,17.1,30.67,SSW,205,1.0,3.0,64,0.00,,,0.00,Wunderground v.1.15,2013-01-17 16:55:00,
2013-01-17 10:01:00,28.2,17.2,30.67,SSE,158,1.0,1.0,63,0.00,,,0.00,Wunderground v.1.15,2013-01-17 17:01:00,
2013-01-17 10:11:00,30.3,18.1,30.66,SSW,212,0.0,2.0,60,0.00,,,0.00,Wunderground v.1.15,2013-01-17 17:11:00,
2013-01-17 10:20:00,31.2,18.1,30.65,SSW,206,0.0,0.0,58,0.00,,,0.00,Wunderground v.1.15,2013-01-17 17:20:00,
2013-01-17 10:31:00,32.7,18.7,30.64,ESE,112,0.0,0.0,56,0.00,,,0.00,Wunderground v.1.15,2013-01-17 17:31:00,
2013-01-17 10:40:00,34.9,19.0,30.63,West,262,0.0,1.0,52,0.00,,,0.00,Wunderground v.1.15,2013-01-17 17:40:00,
2013-01-17 10:45:00,35.4,17.6,30.63,NNW,328,1.0,2.0,48,0.00,,,0.00,Wunderground v.1.15,2013-01-17 17:45:00,
2013-01-17 10:50:00,35.9,18.1,30.63,NNW,327,2.0,3.0,48,0.00,,,0.00,Wunderground v.1.15,2013-01-17 17:50:00,
2013-01-17 10:55:00,36.9,17.5,30.63,NW,325,3.0,3.0,45,0.00,,,0.00,Wunderground v.1.15,2013-01-17 17:55:00,
2013-01-17 11:01:00,37.7,17.7,30.62,NW,309,3.0,5.0,44,0.00,,,0.00,Wunderground v.1.15,2013-01-17 18:01:00,
2013-01-17 11:10:00,38.1,18.1,30.61,NNW,331,4.0,4.0,44,0.00,,,0.00,Wunderground v.1.15,2013-01-17 18:10:00,
2013-01-17 11:20:00,38.7,18.1,30.60,NNW,330,3.0,6.0,43,0.00,,,0.00,Wunderground v.1.15,2013-01-17 18:20:00,
2013-01-17 11:25:00,38.7,17.0,30.60,NW,321,4.0,6.0,41,0.00,,,0.00,Wunderground v.1.15,2013-01-17 18:25:00,
2013-01-17 11:30:00,38.5,16.8,30.60,WNW,299,4.0,4.0,41,0.00,,,0.00,Wunderground v.1.15,2013-01-17 18:30:00,
2013-01-17 11:35:00,38.7,18.1,30.60,NNW,331,4.0,4.0,43,0.00,,,0.00,Wunderground v.1.15,2013-01-17 18:35:00,
2013-01-17 11:40:00,38.8,17.6,30.59,NW,326,3.0,6.0,42,0.00,,,0.00,Wunderground v.1.15,2013-01-17 18:40:00,
2013-01-17 11:45:00,38.6,17.5,30.59,NW,313,4.0,6.0,42,0.00,,,0.00,Wunderground v.1.15,2013-01-17 18:45:00,
2013-01-17 11:50:00,39.1,17.4,30.59,NW,309,4.0,4.0,41,0.00,,,0.00,Wunderground v.1.15,2013-01-17 18:50:00,
2013-01-17 11:55:00,39.0,17.8,30.59,NNW,327,3.0,7.0,42,0.00,,,0.00,Wunderground v.1.15,2013-01-17 18:55:00,
2013-01-17 12:01:00,38.8,17.1,30.59,NW,320,4.0,7.0,41,0.00,,,0.00,Wunderground v.1.15,2013-01-17 19:01:00,
2013-01-17 12:10:00,39.0,17.3,30.58,NW,321,4.0,4.0,41,0.00,,,0.00,Wunderground v.1.15,2013-01-17 19:10:00,
2013-01-17 12:15:00,39.0,17.8,30.58,NW,313,4.0,5.0,42,0.00,,,0.00,Wunderground v.1.15,2013-01-17 19:15:00,
2013-01-17 12:20:00,38.6,16.9,30.58,North,360,4.0,4.0,41,0.00,,,0.00,Wunderground v.1.15,2013-01-17 19:20:00,
2013-01-17 12:30:00,39.0,17.8,30.57,NW,317,4.0,4.0,42,0.00,,,0.00,Wunderground v.1.15,2013-01-17 19:30:00,
2013-01-17 12:40:00,38.9,17.2,30.57,NW,315,3.0,5.0,41,0.00,,,0.00,Wunderground v.1.15,2013-01-17 19:40:00,
2013-01-17 12:50:00,39.0,17.3,30.57,NW,320,3.0,3.0,41,0.00,,,0.00,Wunderground v.1.15,2013-01-17 19:50:00,
2013-01-17 12:55:00,39.0,17.3,30.56,NW,311,3.0,3.0,41,0.00,,,0.00,Wunderground v.1.15,2013-01-17 19:55:00,
2013-01-17 13:01:00,39.1,16.8,30.56,NNW,329,4.0,6.0,40,0.00,,,0.00,Wunderground v.1.15,2013-01-17 20:01:00,
2013-01-17 13:11:00,38.8,17.1,30.56,NNW,328,4.0,4.0,41,0.00,,,0.00,Wunderground v.1.15,2013-01-17 20:11:00,
2013-01-17 13:16:00,38.6,16.9,30.55,NNW,339,4.0,4.0,41,0.00,,,0.00,Wunderground v.1.15,2013-01-17 20:16:00,
2013-01-17 13:21:00,38.5,16.8,30.55,NW,311,4.0,4.0,41,0.00,,,0.00,Wunderground v.1.15,2013-01-17 20:21:00,
2013-01-17 13:30:00,38.1,17.0,30.55,NNW,343,4.0,5.0,42,0.00,,,0.00,Wunderground v.1.15,2013-01-17 20:30:00,
2013-01-17 13:35:00,38.2,18.2,30.55,NNW,333,4.0,5.0,44,0.00,,,0.00,Wunderground v.1.15,2013-01-17 20:35:00,
2013-01-17 13:45:00,37.9,17.4,30.55,WSW,252,5.0,7.0,43,0.00,,,0.00,Wunderground v.1.15,2013-01-17 20:45:00,
2013-01-17 13:50:00,37.9,16.8,30.55,NW,317,5.0,5.0,42,0.00,,,0.00,Wunderground v.1.15,2013-01-17 20:50:00,
2013-01-17 13:55:00,37.9,16.8,30.55,WNW,288,4.0,5.0,42,0.00,,,0.00,Wunderground v.1.15,2013-01-17 20:55:00,
2013-01-17 14:01:00,37.7,17.7,30.54,NW,325,4.0,4.0,44,0.00,,,0.00,Wunderground v.1.15,2013-01-17 21:01:00,
2013-01-17 14:10:00,37.6,16.5,30.54,NW,319,5.0,5.0,42,0.00,,,0.00,Wunderground v.1.15,2013-01-17 21:10:00,
2013-01-17 14:15:00,37.5,15.9,30.54,NW,315,5.0,5.0,41,0.00,,,0.00,Wunderground v.1.15,2013-01-17 21:15:00,
2013-01-17 14:20:00,37.4,16.9,30.54,NNW,327,4.0,4.0,43,0.00,,,0.00,Wunderground v.1.15,2013-01-17 21:20:00,
2013-01-17 14:25:00,37.6,16.5,30.53,NW,323,3.0,5.0,42,0.00,,,0.00,Wunderground v.1.15,2013-01-17 21:25:00,
2013-01-17 14:30:00,37.7,16.6,30.53,NW,321,4.0,4.0,42,0.00,,,0.00,Wunderground v.1.15,2013-01-17 21:30:00,
2013-01-17 14:40:00,37.7,16.6,30.53,NNW,329,4.0,4.0,42,0.00,,,0.00,Wunderground v.1.15,2013-01-17 21:40:00,
2013-01-17 14:50:00,37.4,16.9,30.53,NW,315,3.0,3.0,43,0.00,,,0.00,Wunderground v.1.15,2013-01-17 21:50:00,
2013-01-17 14:55:00,37.4,16.9,30.53,NNW,327,3.0,5.0,43,0.00,,,0.00,Wunderground v.1.15,2013-01-17 21:55:00,
2013-01-17 15:01:00,37.3,16.8,30.53,NNW,342,2.0,5.0,43,0.00,,,0.00,Wunderground v.1.15,2013-01-17 22:01:00,
2013-01-17 15:11:00,36.8,16.9,30.53,NNW,340,3.0,3.0,44,0.00,,,0.00,Wunderground v.1.15,2013-01-17 22:11:00,
2013-01-17 15:21:00,36.1,16.8,30.54,SW,233,2.0,2.0,45,0.00,,,0.00,Wunderground v.1.15,2013-01-17 22:21:00,
2013-01-17 15:30:00,35.5,16.2,30.53,West,267,1.0,2.0,45,0.00,,,0.00,Wunderground v.1.15,2013-01-17 22:30:00,
2013-01-17 15:35:00,34.7,16.5,30.54,NW,314,1.0,2.0,47,0.00,,,0.00,Wunderground v.1.15,2013-01-17 22:35:00,
2013-01-17 15:40:00,34.5,16.3,30.53,WSW,250,1.0,4.0,47,0.00,,,0.00,Wunderground v.1.15,2013-01-17 22:40:00,
2013-01-17 15:45:00,34.3,15.6,30.53,WNW,286,1.0,4.0,46,0.00,,,0.00,Wunderground v.1.15,2013-01-17 22:45:00,
2013-01-17 15:50:00,33.9,16.3,30.54,West,263,1.0,1.0,48,0.00,,,0.00,Wunderground v.1.15,2013-01-17 22:50:00,
2013-01-17 16:01:00,33.0,15.9,30.54,SW,228,1.0,2.0,49,0.00,,,0.00,Wunderground v.1.15,2013-01-17 23:01:00,
2013-01-17 16:10:00,32.5,15.9,30.55,SSW,199,1.0,2.0,50,0.00,,,0.00,Wunderground v.1.15,2013-01-17 23:10:00,
2013-01-17 16:20:00,32.2,15.6,30.55,SW,236,0.0,0.0,50,0.00,,,0.00,Wunderground v.1.15,2013-01-17 23:20:00,
2013-01-17 16:30:00,31.1,16.4,30.55,SW,236,0.0,0.0,54,0.00,,,0.00,Wunderground v.1.15,2013-01-17 23:30:00,
2013-01-17 16:35:00,29.8,16.0,30.55,SW,236,0.0,0.0,56,0.00,,,0.00,Wunderground v.1.15,2013-01-17 23:35:00,
2013-01-17 16:45:00,28.9,16.4,30.55,SW,236,0.0,0.0,59,0.00,,,0.00,Wunderground v.1.15,2013-01-17 23:45:00,
2013-01-17 16:50:00,28.6,16.8,30.56,SW,236,0.0,0.0,61,0.00,,,0.00,Wunderground v.1.15,2013-01-17 23:50:00,
2013-01-17 16:55:00,27.9,16.9,30.55,SW,236,0.0,0.0,63,0.00,,,0.00,Wunderground v.1.15,2013-01-17 23:55:00,
2013-01-17 17:01:00,27.3,17.1,30.56,SW,236,0.0,0.0,65,0.00,,,0.00,Wunderground v.1.15,2013-01-18 00:01:00,
2013-01-17 17:11:00,26.8,17.0,30.56,SW,236,0.0,0.0,66,0.00,,,0.00,Wunderground v.1.15,2013-01-18 00:11:00,
2013-01-17 17:16:00,26.3,17.2,30.56,SW,236,0.0,0.0,68,0.00,,,0.00,Wunderground v.1.15,2013-01-18 00:16:00,
2013-01-17 17:26:00,25.8,17.4,30.56,SW,236,0.0,0.0,70,0.00,,,0.00,Wunderground v.1.15,2013-01-18 00:26:00,
2013-01-17 17:35:00,25.6,16.8,30.56,SW,236,0.0,0.0,69,0.00,,,0.00,Wunderground v.1.15,2013-01-18 00:35:00,
2013-01-17 17:40:00,25.4,17.0,30.56,SW,236,0.0,0.0,70,0.00,,,0.00,Wunderground v.1.15,2013-01-18 00:40:00,
2013-01-17 17:45:00,25.1,16.7,30.56,SW,236,0.0,0.0,70,0.00,,,0.00,Wunderground v.1.15,2013-01-18 00:45:00,
2013-01-17 17:50:00,25.1,16.7,30.56,SW,236,0.0,0.0,70,0.00,,,0.00,Wunderground v.1.15,2013-01-18 00:50:00,
2013-01-17 17:55:00,24.7,16.6,30.56,SW,236,0.0,0.0,71,0.00,,,0.00,Wunderground v.1.15,2013-01-18 00:55:00,
2013-01-17 18:01:00,24.3,16.2,30.57,SW,236,0.0,0.0,71,0.00,,,0.00,Wunderground v.1.15,2013-01-18 01:01:00,
2013-01-17 18:11:00,23.8,16.1,30.57,SW,236,0.0,0.0,72,0.00,,,0.00,Wunderground v.1.15,2013-01-18 01:11:00,
2013-01-17 18:16:00,23.7,16.3,30.57,SW,236,0.0,0.0,73,0.00,,,0.00,Wunderground v.1.15,2013-01-18 01:16:00,
2013-01-17 18:21:00,23.2,16.1,30.57,SW,236,0.0,0.0,74,0.00,,,0.00,Wunderground v.1.15,2013-01-18 01:21:00,
2013-01-17 18:26:00,23.1,16.0,30.57,SW,236,0.0,0.0,74,0.00,,,0.00,Wunderground v.1.15,2013-01-18 01:26:00,
2013-01-17 18:35:00,22.4,15.7,30.57,SW,236,0.0,0.0,75,0.00,,,0.00,Wunderground v.1.15,2013-01-18 01:35:00,
2013-01-17 18:40:00,22.2,15.8,30.57,SW,236,0.0,0.0,76,0.00,,,0.00,Wunderground v.1.15,2013-01-18 01:40:00,
2013-01-17 18:45:00,22.0,15.6,30.57,SW,236,0.0,0.0,76,0.00,,,0.00,Wunderground v.1.15,2013-01-18 01:45:00,
2013-01-17 18:50:00,21.6,15.5,30.58,SW,236,0.0,0.0,77,0.00,,,0.00,Wunderground v.1.15,2013-01-18 01:50:00,
2013-01-17 19:05:00,20.8,15.3,30.58,SW,236,0.0,0.0,79,0.00,,,0.00,Wunderground v.1.15,2013-01-18 02:05:00,
2013-01-17 19:10:00,20.9,15.1,30.58,SW,236,0.0,0.0,78,0.00,,,0.00,Wunderground v.1.15,2013-01-18 02:10:00,
2013-01-17 19:16:00,20.6,14.8,30.58,SW,236,0.0,0.0,78,0.00,,,0.00,Wunderground v.1.15,2013-01-18 02:16:00,
2013-01-17 19:26:00,20.5,15.0,30.58,SW,236,0.0,0.0,79,0.00,,,0.00,Wunderground v.1.15,2013-01-18 02:26:00,
2013-01-17 19:35:00,20.0,14.5,30.58,SW,236,0.0,0.0,79,0.00,,,0.00,Wunderground v.1.15,2013-01-18 02:35:00,
2013-01-17 19:45:00,20.0,14.8,30.58,SW,236,0.0,0.0,80,0.00,,,0.00,Wunderground v.1.15,2013-01-18 02:45:00,
2013-01-17 19:50:00,20.0,14.8,30.58,SW,236,0.0,0.0,80,0.00,,,0.00,Wunderground v.1.15,2013-01-18 02:50:00,
2013-01-17 20:01:00,19.6,13.9,30.58,SE,145,0.0,0.0,78,0.00,,,0.00,Wunderground v.1.15,2013-01-18 03:01:00,
2013-01-17 20:10:00,19.5,14.0,30.58,SE,145,0.0,0.0,79,0.00,,,0.00,Wunderground v.1.15,2013-01-18 03:10:00,
2013-01-17 20:15:00,19.3,13.9,30.58,SE,145,0.0,0.0,79,0.00,,,0.00,Wunderground v.1.15,2013-01-18 03:15:00,
2013-01-17 20:25:00,18.7,13.3,30.58,SE,145,0.0,0.0,79,0.00,,,0.00,Wunderground v.1.15,2013-01-18 03:25:00,
2013-01-17 20:35:00,18.5,13.4,30.58,SE,145,0.0,0.0,80,0.00,,,0.00,Wunderground v.1.15,2013-01-18 03:35:00,
2013-01-17 20:40:00,18.2,13.1,30.58,SE,145,0.0,0.0,80,0.00,,,0.00,Wunderground v.1.15,2013-01-18 03:40:00,
2013-01-17 20:50:00,17.9,12.8,30.58,SE,145,0.0,1.0,80,0.00,,,0.00,Wunderground v.1.15,2013-01-18 03:50:00,
2013-01-17 20:55:00,17.6,12.5,30.57,SE,144,0.0,1.0,80,0.00,,,0.00,Wunderground v.1.15,2013-01-18 03:55:00,
2013-01-17 21:01:00,17.4,12.6,30.58,SE,144,0.0,0.0,81,0.00,,,0.00,Wunderground v.1.15,2013-01-18 04:01:00,
2013-01-17 21:10:00,17.0,12.2,30.58,SE,144,0.0,0.0,81,0.00,,,0.00,Wunderground v.1.15,2013-01-18 04:10:00,
2013-01-17 21:16:00,16.7,11.9,30.58,SE,144,0.0,0.0,81,0.00,,,0.00,Wunderground v.1.15,2013-01-18 04:16:00,
2013-01-17 21:26:00,16.4,11.9,30.58,SE,144,0.0,0.0,82,0.00,,,0.00,Wunderground v.1.15,2013-01-18 04:26:00,
2013-01-17 21:31:00,16.0,11.5,30.58,SE,144,0.0,0.0,82,0.00,,,0.00,Wunderground v.1.15,2013-01-18 04:31:00,
2013-01-17 21:40:00,15.5,11.0,30.58,SE,144,0.0,0.0,82,0.00,,,0.00,Wunderground v.1.15,2013-01-18 04:40:00,
2013-01-17 21:50:00,15.4,11.2,30.59,SE,144,0.0,1.0,83,0.00,,,0.00,Wunderground v.1.15,2013-01-18 04:50:00,
2013-01-17 21:55:00,15.1,10.6,30.58,SE,144,0.0,1.0,82,0.00,,,0.00,Wunderground v.1.15,2013-01-18 04:55:00,
2013-01-17 22:01:00,14.9,10.7,30.58,SE,144,0.0,0.0,83,0.00,,,0.00,Wunderground v.1.15,2013-01-18 05:01:00,
2013-01-17 22:10:00,14.9,10.7,30.58,SE,144,0.0,0.0,83,0.00,,,0.00,Wunderground v.1.15,2013-01-18 05:10:00,
2013-01-17 22:15:00,14.8,10.6,30.58,SE,144,0.0,0.0,83,0.00,,,0.00,Wunderground v.1.15,2013-01-18 05:15:00,
2013-01-17 22:25:00,14.4,10.2,30.58,SE,144,0.0,0.0,83,0.00,,,0.00,Wunderground v.1.15,2013-01-18 05:25:00,
2013-01-17 22:35:00,14.1,10.2,30.58,SE,144,0.0,0.0,84,0.00,,,0.00,Wunderground v.1.15,2013-01-18 05:35:00,
2013-01-17 22:40:00,14.0,10.1,30.58,SE,144,0.0,0.0,84,0.00,,,0.00,Wunderground v.1.15,2013-01-18 05:40:00,
2013-01-17 22:45:00,14.0,10.3,30.58,SE,144,0.0,0.0,85,0.00,,,0.00,Wunderground v.1.15,2013-01-18 05:45:00,
2013-01-17 22:55:00,14.1,10.7,30.58,SE,144,0.0,0.0,86,0.00,,,0.00,Wunderground v.1.15,2013-01-18 05:55:00,
2013-01-17 23:01:00,14.1,10.4,30.59,SE,144,0.0,0.0,85,0.00,,,0.00,Wunderground v.1.15,2013-01-18 06:01:00,
2013-01-17 23:10:00,13.7,10.0,30.59,SE,144,0.0,0.0,85,0.00,,,0.00,Wunderground v.1.15,2013-01-18 06:10:00,
2013-01-17 23:15:00,13.7,10.3,30.59,SE,144,0.0,0.0,86,0.00,,,0.00,Wunderground v.1.15,2013-01-18 06:15:00,
2013-01-17 23:25:00,13.7,10.5,30.58,SE,144,0.0,0.0,87,0.00,,,0.00,Wunderground v.1.15,2013-01-18 06:25:00,
2013-01-17 23:30:00,13.6,10.2,30.58,SE,144,0.0,0.0,86,0.00,,,0.00,Wunderground v.1.15,2013-01-18 06:30:00,
2013-01-17 23:40:00,13.3,9.9,30.58,SE,144,0.0,0.0,86,0.00,,,0.00,Wunderground v.1.15,2013-01-18 06:40:00,
2013-01-17 23:50:00,13.3,10.2,30.58,SE,144,0.0,0.0,87,0.00,,,0.00,Wunderground v.1.15,2013-01-18 06:50:00,